owner,sensor,date,latitude,longitude,vertical_datum,mass_concentration_of_oxygen_in_sea_water,qcFlag 
DISL,ioos:station:DISL:MHPA:1,2014-02-01T00:00:00Z,30.6671,-87.9365,0.9835896,13.26,1111122 
DISL,ioos:station:DISL:MHPA:1,2014-02-01T00:30:00Z,30.6671,-87.9365,1.0244328,13.14,1111122 
DISL,ioos:station:DISL:MHPA:1,2014-02-01T01:00:00Z,30.6671,-87.9365,1.057656,13.24,1111122 
DISL,ioos:station:DISL:MHPA:1,2014-02-01T01:30:00Z,30.6671,-87.9365,1.0686288,13.19,1111122 
DISL,ioos:station:DISL:MHPA:1,2014-02-01T02:00:00Z,30.6671,-87.9365,1.1058145,13.16,1111122 
DISL,ioos:station:DISL:MHPA:1,2014-02-01T02:30:00Z,30.6671,-87.9365,1.1268456,13.22,1111122 
DISL,ioos:station:DISL:MHPA:1,2014-02-01T03:00:00Z,30.6671,-87.9365,1.1682984,13.16,1111122 
DISL,ioos:station:DISL:MHPA:1,2014-02-01T03:30:00Z,30.6671,-87.9365,1.193292,13.14,1111122 
DISL,ioos:station:DISL:MHPA:1,2014-02-01T04:00:00Z,30.6671,-87.9365,1.2106656,13.17,1111122 
DISL,ioos:station:DISL:MHPA:1,2014-02-01T04:30:00Z,30.6671,-87.9365,1.2188952,13.03,1111122 
DISL,ioos:station:DISL:MHPA:1,2014-02-01T05:00:00Z,30.6671,-87.9365,1.2195048,13.0,1111122 
DISL,ioos:station:DISL:MHPA:1,2014-02-01T05:30:00Z,30.6671,-87.9365,1.2597383,13.07,1111122 
DISL,ioos:station:DISL:MHPA:1,2014-02-01T06:00:00Z,30.6671,-87.9365,1.2597383,13.03,1111122 
DISL,ioos:station:DISL:MHPA:1,2014-02-01T06:30:00Z,30.6671,-87.9365,1.2618719,13.3,1111122 
DISL,ioos:station:DISL:MHPA:1,2014-02-01T07:00:00Z,30.6671,-87.9365,1.2448032,12.98,1111122 
DISL,ioos:station:DISL:MHPA:1,2014-02-01T07:30:00Z,30.6671,-87.9365,1.2365737,12.9,1111122 
DISL,ioos:station:DISL:MHPA:1,2014-02-01T08:00:00Z,30.6671,-87.9365,1.200912,12.76,1111122 
DISL,ioos:station:DISL:MHPA:1,2014-02-01T08:30:00Z,30.6671,-87.9365,1.1722608,12.76,1111122 
DISL,ioos:station:DISL:MHPA:1,2014-02-01T09:00:00Z,30.6671,-87.9365,1.126236,12.62,1111122 
DISL,ioos:station:DISL:MHPA:1,2014-02-01T09:30:00Z,30.6671,-87.9365,1.095756,12.46,1111122 
DISL,ioos:station:DISL:MHPA:1,2014-02-01T10:00:00Z,30.6671,-87.9365,1.0564369,12.24,1111122 
DISL,ioos:station:DISL:MHPA:1,2014-02-01T10:30:00Z,30.6671,-87.9365,1.0186416,12.17,1111122 
DISL,ioos:station:DISL:MHPA:1,2014-02-01T11:00:00Z,30.6671,-87.9365,0.9756648,12.32,1111122 
DISL,ioos:station:DISL:MHPA:1,2014-02-01T11:30:00Z,30.6671,-87.9365,0.9396984,12.16,1111122 
DISL,ioos:station:DISL:MHPA:1,2014-02-01T12:00:00Z,30.6671,-87.9365,0.9107424,12.41,1111122 
DISL,ioos:station:DISL:MHPA:1,2014-02-01T12:30:00Z,30.6671,-87.9365,0.8790432,12.35,1111122 
DISL,ioos:station:DISL:MHPA:1,2014-02-01T13:00:00Z,30.6671,-87.9365,0.848868,12.4,1111122 
DISL,ioos:station:DISL:MHPA:1,2014-02-01T13:30:00Z,30.6671,-87.9365,0.82722723,12.44,1111122 
DISL,ioos:station:DISL:MHPA:1,2014-02-01T14:00:00Z,30.6671,-87.9365,0.8083296,12.54,1111122 
DISL,ioos:station:DISL:MHPA:1,2014-02-01T14:30:00Z,30.6671,-87.9365,0.7872984,12.44,1111122 
DISL,ioos:station:DISL:MHPA:1,2014-02-01T15:00:00Z,30.6671,-87.9365,0.7702296,12.37,1111122 
DISL,ioos:station:DISL:MHPA:1,2014-02-01T15:30:00Z,30.6671,-87.9365,0.7568184,12.32,1111122 
DISL,ioos:station:DISL:MHPA:1,2014-02-01T16:00:00Z,30.6671,-87.9365,0.7418832,12.21,1111122 
DISL,ioos:station:DISL:MHPA:1,2014-02-01T16:30:00Z,30.6671,-87.9365,0.74249285,12.28,1111122 
DISL,ioos:station:DISL:MHPA:1,2014-02-01T17:00:00Z,30.6671,-87.9365,0.75651366,12.31,1111122 
DISL,ioos:station:DISL:MHPA:1,2014-02-01T17:30:00Z,30.6671,-87.9365,0.7577328,12.25,1111122 
DISL,ioos:station:DISL:MHPA:1,2014-02-01T18:00:00Z,30.6671,-87.9365,0.7592568,11.98,1111122 
DISL,ioos:station:DISL:MHPA:1,2014-02-01T18:30:00Z,30.6671,-87.9365,0.780288,12.43,1111122 
DISL,ioos:station:DISL:MHPA:1,2014-02-01T19:00:00Z,30.6671,-87.9365,0.81473047,12.42,1111122 
DISL,ioos:station:DISL:MHPA:1,2014-02-01T19:30:00Z,30.6671,-87.9365,0.8531352,12.43,1111122 
DISL,ioos:station:DISL:MHPA:1,2014-02-01T20:00:00Z,30.6671,-87.9365,0.89733124,11.95,1111122 
DISL,ioos:station:DISL:MHPA:1,2014-02-01T20:30:00Z,30.6671,-87.9365,0.92842084,12.34,1111122 
DISL,ioos:station:DISL:MHPA:1,2014-02-01T21:00:00Z,30.6671,-87.9365,0.95646244,12.39,1111122 
DISL,ioos:station:DISL:MHPA:1,2014-02-01T21:30:00Z,30.6671,-87.9365,0.9589008,12.37,1111122 
DISL,ioos:station:DISL:MHPA:1,2014-02-01T22:00:00Z,30.6671,-87.9365,0.97596955,12.49,1111122 
DISL,ioos:station:DISL:MHPA:1,2014-02-01T22:30:00Z,30.6671,-87.9365,1.0009632,12.46,1111122 
DISL,ioos:station:DISL:MHPA:1,2014-02-01T23:00:00Z,30.6671,-87.9365,0.99608636,12.32,1111122 
DISL,ioos:station:DISL:MHPA:1,2014-02-01T23:30:00Z,30.6671,-87.9365,0.995172,12.21,1111122 
DISL,ioos:station:DISL:MHPA:1,2014-02-02T00:00:00Z,30.6671,-87.9365,1.0101072,11.8,1111122 
DISL,ioos:station:DISL:MHPA:1,2014-02-02T00:30:00Z,30.6671,-87.9365,0.9942576,12.26,1111122 
DISL,ioos:station:DISL:MHPA:1,2014-02-02T01:00:00Z,30.6671,-87.9365,1.0000488,12.47,1111122 
DISL,ioos:station:DISL:MHPA:1,2014-02-02T01:30:00Z,30.6671,-87.9365,1.0034016,12.44,1111122 
DISL,ioos:station:DISL:MHPA:1,2014-02-02T02:00:00Z,30.6671,-87.9365,1.0070592,12.41,1111122 
DISL,ioos:station:DISL:MHPA:1,2014-02-02T02:30:00Z,30.6671,-87.9365,1.0171176,12.38,1111122 
DISL,ioos:station:DISL:MHPA:1,2014-02-02T03:00:00Z,30.6671,-87.9365,1.0308336,12.25,1111122 
DISL,ioos:station:DISL:MHPA:1,2014-02-02T03:30:00Z,30.6671,-87.9365,1.0643617,12.06,1111122 
DISL,ioos:station:DISL:MHPA:1,2014-02-02T04:00:00Z,30.6671,-87.9365,1.1045952,11.62,1111122 
DISL,ioos:station:DISL:MHPA:1,2014-02-02T04:30:00Z,30.6671,-87.9365,1.1341608,11.94,1111122 
DISL,ioos:station:DISL:MHPA:1,2014-02-02T05:00:00Z,30.6671,-87.9365,1.1631168,11.92,1111122 
DISL,ioos:station:DISL:MHPA:1,2014-02-02T05:30:00Z,30.6671,-87.9365,1.1966449,12.11,1111122 
DISL,ioos:station:DISL:MHPA:1,2014-02-02T06:00:00Z,30.6671,-87.9365,1.205484,12.07,1111122 
DISL,ioos:station:DISL:MHPA:1,2014-02-02T06:30:00Z,30.6671,-87.9365,1.2176759,12.06,1111122 
DISL,ioos:station:DISL:MHPA:1,2014-02-02T07:00:00Z,30.6671,-87.9365,1.2167616,11.97,1111122 
DISL,ioos:station:DISL:MHPA:1,2014-02-02T07:30:00Z,30.6671,-87.9365,1.2088368,11.92,1111122 
DISL,ioos:station:DISL:MHPA:1,2014-02-02T08:00:00Z,30.6671,-87.9365,1.2173712,11.94,1111122 
DISL,ioos:station:DISL:MHPA:1,2014-02-02T08:30:00Z,30.6671,-87.9365,1.2192,11.8,1111122 
DISL,ioos:station:DISL:MHPA:1,2014-02-02T09:00:00Z,30.6671,-87.9365,1.2048744,11.74,1111122 
DISL,ioos:station:DISL:MHPA:1,2014-02-02T09:30:00Z,30.6671,-87.9365,1.1801856,11.7,1111122 
DISL,ioos:station:DISL:MHPA:1,2014-02-02T10:00:00Z,30.6671,-87.9365,1.1798809,11.41,1111122 
DISL,ioos:station:DISL:MHPA:1,2014-02-02T10:30:00Z,30.6671,-87.9365,1.141476,11.86,1111122 
DISL,ioos:station:DISL:MHPA:1,2014-02-02T11:00:00Z,30.6671,-87.9365,1.1061192,12.04,1111122 
DISL,ioos:station:DISL:MHPA:1,2014-02-02T11:30:00Z,30.6671,-87.9365,1.0594848,12.04,1111122 
DISL,ioos:station:DISL:MHPA:1,2014-02-02T12:00:00Z,30.6671,-87.9365,1.0213848,12.11,1111122 
DISL,ioos:station:DISL:MHPA:1,2014-02-02T12:30:00Z,30.6671,-87.9365,0.9841992,11.84,1111122 
DISL,ioos:station:DISL:MHPA:1,2014-02-02T13:00:00Z,30.6671,-87.9365,0.95097595,11.77,1111122 
DISL,ioos:station:DISL:MHPA:1,2014-02-02T13:30:00Z,30.6671,-87.9365,0.9244584,11.75,1111122 
DISL,ioos:station:DISL:MHPA:1,2014-02-02T14:00:00Z,30.6671,-87.9365,0.9028176,11.67,1111122 
DISL,ioos:station:DISL:MHPA:1,2014-02-02T14:30:00Z,30.6671,-87.9365,0.8875776,11.82,1111122 
DISL,ioos:station:DISL:MHPA:1,2014-02-02T15:00:00Z,30.6671,-87.9365,0.88483447,11.77,1111122 
DISL,ioos:station:DISL:MHPA:1,2014-02-02T15:30:00Z,30.6671,-87.9365,0.8775192,11.76,1111122 
DISL,ioos:station:DISL:MHPA:1,2014-02-02T16:00:00Z,30.6671,-87.9365,0.88331044,11.73,1111122 
DISL,ioos:station:DISL:MHPA:1,2014-02-02T16:30:00Z,30.6671,-87.9365,0.8921496,11.72,1111122 
DISL,ioos:station:DISL:MHPA:1,2014-02-02T17:00:00Z,30.6671,-87.9365,0.8897112,11.78,1111122 
DISL,ioos:station:DISL:MHPA:1,2014-02-02T17:30:00Z,30.6671,-87.9365,0.900684,11.76,1111122 
DISL,ioos:station:DISL:MHPA:1,2014-02-02T18:00:00Z,30.6671,-87.9365,0.9171432,11.8,1111122 
DISL,ioos:station:DISL:MHPA:1,2014-02-02T18:30:00Z,30.6671,-87.9365,0.941832,11.8,1111122 
DISL,ioos:station:DISL:MHPA:1,2014-02-02T19:00:00Z,30.6671,-87.9365,0.9796272,11.82,1111122 
DISL,ioos:station:DISL:MHPA:1,2014-02-02T19:30:00Z,30.6671,-87.9365,0.9851136,11.79,1111122 
DISL,ioos:station:DISL:MHPA:1,2014-02-02T20:00:00Z,30.6671,-87.9365,1.0177273,11.74,1111122 
DISL,ioos:station:DISL:MHPA:1,2014-02-02T20:30:00Z,30.6671,-87.9365,1.0512552,11.76,1111122 
DISL,ioos:station:DISL:MHPA:1,2014-02-02T21:00:00Z,30.6671,-87.9365,1.062228,11.71,1111122 
DISL,ioos:station:DISL:MHPA:1,2014-02-02T21:30:00Z,30.6671,-87.9365,1.0756392,11.72,1111122 
DISL,ioos:station:DISL:MHPA:1,2014-02-02T22:00:00Z,30.6671,-87.9365,1.0893552,11.73,1111122 
DISL,ioos:station:DISL:MHPA:1,2014-02-02T22:30:00Z,30.6671,-87.9365,1.0984993,11.7,1111122 
DISL,ioos:station:DISL:MHPA:1,2014-02-02T23:00:00Z,30.6671,-87.9365,1.1134344,11.62,1111122 
DISL,ioos:station:DISL:MHPA:1,2014-02-02T23:30:00Z,30.6671,-87.9365,1.12014,11.62,1111122 
DISL,ioos:station:DISL:MHPA:1,2014-02-03T00:00:00Z,30.6671,-87.9365,1.1183112,11.6,1111122 
DISL,ioos:station:DISL:MHPA:1,2014-02-03T00:30:00Z,30.6671,-87.9365,1.1158729,11.58,1111122 
DISL,ioos:station:DISL:MHPA:1,2014-02-03T01:00:00Z,30.6671,-87.9365,1.1177016,11.55,1111122 
DISL,ioos:station:DISL:MHPA:1,2014-02-03T01:30:00Z,30.6671,-87.9365,1.095756,11.52,1111122 
DISL,ioos:station:DISL:MHPA:1,2014-02-03T02:00:00Z,30.6671,-87.9365,1.1021568,11.39,1111122 
DISL,ioos:station:DISL:MHPA:1,2014-02-03T02:30:00Z,30.6671,-87.9365,1.1189208,11.32,1111122 
DISL,ioos:station:DISL:MHPA:1,2014-02-03T03:00:00Z,30.6671,-87.9365,1.114044,11.27,1111122 
DISL,ioos:station:DISL:MHPA:1,2014-02-03T03:30:00Z,30.6671,-87.9365,1.1106912,11.27,1111122 
DISL,ioos:station:DISL:MHPA:1,2014-02-03T04:00:00Z,30.6671,-87.9365,1.1091672,11.26,1111122 
DISL,ioos:station:DISL:MHPA:1,2014-02-03T04:30:00Z,30.6671,-87.9365,1.1408664,11.19,1111122 
DISL,ioos:station:DISL:MHPA:1,2014-02-03T05:00:00Z,30.6671,-87.9365,1.1667744,11.28,1111122 
DISL,ioos:station:DISL:MHPA:1,2014-02-03T05:30:00Z,30.6671,-87.9365,1.1969496,11.15,1111122 
DISL,ioos:station:DISL:MHPA:1,2014-02-03T06:00:00Z,30.6671,-87.9365,1.2134088,11.18,1111122 
DISL,ioos:station:DISL:MHPA:1,2014-02-03T06:30:00Z,30.6671,-87.9365,1.2438887,11.07,1111122 
DISL,ioos:station:DISL:MHPA:1,2014-02-03T07:00:00Z,30.6671,-87.9365,1.2487657,11.05,1111122 
DISL,ioos:station:DISL:MHPA:1,2014-02-03T07:30:00Z,30.6671,-87.9365,1.2600431,11.02,1111122 
DISL,ioos:station:DISL:MHPA:1,2014-02-03T08:00:00Z,30.6671,-87.9365,1.2612624,11.07,1111122 
DISL,ioos:station:DISL:MHPA:1,2014-02-03T08:30:00Z,30.6671,-87.9365,1.2454128,10.91,1111122 
DISL,ioos:station:DISL:MHPA:1,2014-02-03T09:00:00Z,30.6671,-87.9365,1.2335256,10.79,1111122 
DISL,ioos:station:DISL:MHPA:1,2014-02-03T09:30:00Z,30.6671,-87.9365,1.2073128,10.83,1111122 
DISL,ioos:station:DISL:MHPA:1,2014-02-03T10:00:00Z,30.6671,-87.9365,1.1817096,10.74,1111122 
DISL,ioos:station:DISL:MHPA:1,2014-02-03T10:30:00Z,30.6671,-87.9365,1.1646409,11.01,1111122 
DISL,ioos:station:DISL:MHPA:1,2014-02-03T11:00:00Z,30.6671,-87.9365,1.1484864,11.24,1111122 
DISL,ioos:station:DISL:MHPA:1,2014-02-03T11:30:00Z,30.6671,-87.9365,1.1122152,11.4,1111122 
DISL,ioos:station:DISL:MHPA:1,2014-02-03T12:00:00Z,30.6671,-87.9365,1.08204,11.31,1111122 
DISL,ioos:station:DISL:MHPA:1,2014-02-03T12:30:00Z,30.6671,-87.9365,1.0427208,11.25,1111122 
DISL,ioos:station:DISL:MHPA:1,2014-02-03T13:00:00Z,30.6671,-87.9365,1.002792,11.25,1111122 
DISL,ioos:station:DISL:MHPA:1,2014-02-03T13:30:00Z,30.6671,-87.9365,0.9595104,11.15,1111122 
DISL,ioos:station:DISL:MHPA:1,2014-02-03T14:00:00Z,30.6671,-87.9365,0.9079992,11.12,1111122 
DISL,ioos:station:DISL:MHPA:1,2014-02-03T14:30:00Z,30.6671,-87.9365,0.854964,11.01,1111122 
DISL,ioos:station:DISL:MHPA:1,2014-02-03T15:00:00Z,30.6671,-87.9365,0.81473047,10.94,1111122 
DISL,ioos:station:DISL:MHPA:1,2014-02-03T15:30:00Z,30.6671,-87.9365,0.7790688,10.9,1111122 
DISL,ioos:station:DISL:MHPA:1,2014-02-03T16:00:00Z,30.6671,-87.9365,0.7400544,10.97,1111122 
DISL,ioos:station:DISL:MHPA:1,2014-02-03T16:30:00Z,30.6671,-87.9365,0.7077456,11.01,1111122 
DISL,ioos:station:DISL:MHPA:1,2014-02-03T17:00:00Z,30.6671,-87.9365,0.6821424,10.95,1111122 
DISL,ioos:station:DISL:MHPA:1,2014-02-03T17:30:00Z,30.6671,-87.9365,0.667512,11.01,1111122 
DISL,ioos:station:DISL:MHPA:1,2014-02-03T18:00:00Z,30.6671,-87.9365,0.66842645,11.03,1111122 
DISL,ioos:station:DISL:MHPA:1,2014-02-03T18:30:00Z,30.6671,-87.9365,0.6821424,11.05,1111122 
DISL,ioos:station:DISL:MHPA:1,2014-02-03T19:00:00Z,30.6671,-87.9365,0.6858,10.99,1111122 
DISL,ioos:station:DISL:MHPA:1,2014-02-03T19:30:00Z,30.6671,-87.9365,0.675132,11.02,1111122 
DISL,ioos:station:DISL:MHPA:1,2014-02-03T20:00:00Z,30.6671,-87.9365,0.6547104,10.98,1111122 
DISL,ioos:station:DISL:MHPA:1,2014-02-03T20:30:00Z,30.6671,-87.9365,0.6336792,11.06,1111122 
DISL,ioos:station:DISL:MHPA:1,2014-02-03T21:00:00Z,30.6671,-87.9365,0.61813444,11.13,1111122 
DISL,ioos:station:DISL:MHPA:1,2014-02-03T21:30:00Z,30.6671,-87.9365,0.6092952,11.14,1111122 
DISL,ioos:station:DISL:MHPA:1,2014-02-03T22:00:00Z,30.6671,-87.9365,0.6147816,11.13,1111122 
DISL,ioos:station:DISL:MHPA:1,2014-02-03T22:30:00Z,30.6671,-87.9365,0.635508,11.16,1111122 
DISL,ioos:station:DISL:MHPA:1,2014-02-03T23:00:00Z,30.6671,-87.9365,0.6665976,11.17,1111122 
DISL,ioos:station:DISL:MHPA:1,2014-02-03T23:30:00Z,30.6671,-87.9365,0.694944,11.15,1111122 
DISL,ioos:station:DISL:MHPA:1,2014-02-04T00:00:00Z,30.6671,-87.9365,0.71353686,11.18,1111122 
DISL,ioos:station:DISL:MHPA:1,2014-02-04T00:30:00Z,30.6671,-87.9365,0.71749926,11.14,1111122 
DISL,ioos:station:DISL:MHPA:1,2014-02-04T01:00:00Z,30.6671,-87.9365,0.7226808,11.12,1111122 
DISL,ioos:station:DISL:MHPA:1,2014-02-04T01:30:00Z,30.6671,-87.9365,0.72450966,11.02,1111122 
DISL,ioos:station:DISL:MHPA:1,2014-02-04T02:00:00Z,30.6671,-87.9365,0.7123176,11.14,1111122 
DISL,ioos:station:DISL:MHPA:1,2014-02-04T02:30:00Z,30.6671,-87.9365,0.6970776,11.1,1111122 
DISL,ioos:station:DISL:MHPA:1,2014-02-04T03:00:00Z,30.6671,-87.9365,0.6867144,11.0,1111122 
DISL,ioos:station:DISL:MHPA:1,2014-02-04T03:30:00Z,30.6671,-87.9365,0.6818376,11.08,1111122 
DISL,ioos:station:DISL:MHPA:1,2014-02-04T04:00:00Z,30.6671,-87.9365,0.676656,11.07,1111122 
DISL,ioos:station:DISL:MHPA:1,2014-02-04T04:30:00Z,30.6671,-87.9365,0.6717792,11.02,1111122 
DISL,ioos:station:DISL:MHPA:1,2014-02-04T05:00:00Z,30.6671,-87.9365,0.67848486,10.99,1111122 
DISL,ioos:station:DISL:MHPA:1,2014-02-04T05:30:00Z,30.6671,-87.9365,0.6955536,11.0,1111122 
DISL,ioos:station:DISL:MHPA:1,2014-02-04T06:00:00Z,30.6671,-87.9365,0.70866,10.92,1111122 
DISL,ioos:station:DISL:MHPA:1,2014-02-04T06:30:00Z,30.6671,-87.9365,0.7196328,11.03,1111122 
DISL,ioos:station:DISL:MHPA:1,2014-02-04T07:00:00Z,30.6671,-87.9365,0.7409688,10.88,1111122 
DISL,ioos:station:DISL:MHPA:1,2014-02-04T07:30:00Z,30.6671,-87.9365,0.7729728,10.85,1111122 
DISL,ioos:station:DISL:MHPA:1,2014-02-04T08:00:00Z,30.6671,-87.9365,0.8065008,10.72,1111122 
DISL,ioos:station:DISL:MHPA:1,2014-02-04T08:30:00Z,30.6671,-87.9365,0.84216243,10.75,1111122 
DISL,ioos:station:DISL:MHPA:1,2014-02-04T09:00:00Z,30.6671,-87.9365,0.8577072,10.94,1111122 
DISL,ioos:station:DISL:MHPA:1,2014-02-04T09:30:00Z,30.6671,-87.9365,0.89123523,10.89,1111122 
DISL,ioos:station:DISL:MHPA:1,2014-02-04T10:00:00Z,30.6671,-87.9365,0.920496,10.69,1111122 
DISL,ioos:station:DISL:MHPA:1,2014-02-04T10:30:00Z,30.6671,-87.9365,0.926592,10.6,1111122 
DISL,ioos:station:DISL:MHPA:1,2014-02-04T11:00:00Z,30.6671,-87.9365,0.932688,10.71,1111122 
DISL,ioos:station:DISL:MHPA:1,2014-02-04T11:30:00Z,30.6671,-87.9365,0.97901756,10.27,1111122 
DISL,ioos:station:DISL:MHPA:1,2014-02-04T12:00:00Z,30.6671,-87.9365,0.99151444,10.6,1111122 
DISL,ioos:station:DISL:MHPA:1,2014-02-04T12:30:00Z,30.6671,-87.9365,0.99334323,10.55,1111122 
DISL,ioos:station:DISL:MHPA:1,2014-02-04T13:00:00Z,30.6671,-87.9365,1.024128,10.2,1111122 
DISL,ioos:station:DISL:MHPA:1,2014-02-04T13:30:00Z,30.6671,-87.9365,1.0265664,10.25,1111122 
DISL,ioos:station:DISL:MHPA:1,2014-02-04T14:00:00Z,30.6671,-87.9365,1.0320528,10.22,1111122 
DISL,ioos:station:DISL:MHPA:1,2014-02-04T14:30:00Z,30.6671,-87.9365,1.0323577,10.34,1111122 
DISL,ioos:station:DISL:MHPA:1,2014-02-04T15:00:00Z,30.6671,-87.9365,1.0274808,10.4,1111122 
DISL,ioos:station:DISL:MHPA:1,2014-02-04T15:30:00Z,30.6671,-87.9365,1.0296144,10.05,1111122 
DISL,ioos:station:DISL:MHPA:1,2014-02-04T16:00:00Z,30.6671,-87.9365,1.0482072,10.51,1111122 
DISL,ioos:station:DISL:MHPA:1,2014-02-04T16:30:00Z,30.6671,-87.9365,1.0695432,10.59,1111122 
DISL,ioos:station:DISL:MHPA:1,2014-02-04T17:00:00Z,30.6671,-87.9365,1.1030712,10.07,1111122 
DISL,ioos:station:DISL:MHPA:1,2014-02-04T17:30:00Z,30.6671,-87.9365,1.1152632,9.57,1111122 
DISL,ioos:station:DISL:MHPA:1,2014-02-04T18:00:00Z,30.6671,-87.9365,1.152144,9.56,1111122 
DISL,ioos:station:DISL:MHPA:1,2014-02-04T18:30:00Z,30.6671,-87.9365,1.1655551,9.5,1111122 
DISL,ioos:station:DISL:MHPA:1,2014-02-04T19:00:00Z,30.6671,-87.9365,1.1710416,10.55,1111122 
DISL,ioos:station:DISL:MHPA:1,2014-02-04T19:30:00Z,30.6671,-87.9365,1.208532,9.99,1111122 
DISL,ioos:station:DISL:MHPA:1,2014-02-04T20:00:00Z,30.6671,-87.9365,1.1960353,10.27,1111122 
DISL,ioos:station:DISL:MHPA:1,2014-02-04T20:30:00Z,30.6671,-87.9365,1.205484,10.05,1111122 
DISL,ioos:station:DISL:MHPA:1,2014-02-04T21:00:00Z,30.6671,-87.9365,1.2231624,10.74,1111122 
DISL,ioos:station:DISL:MHPA:1,2014-02-04T21:30:00Z,30.6671,-87.9365,1.2384025,11.41,1111122 
DISL,ioos:station:DISL:MHPA:1,2014-02-04T22:00:00Z,30.6671,-87.9365,1.2271248,11.29,1111122 
DISL,ioos:station:DISL:MHPA:1,2014-02-04T22:30:00Z,30.6671,-87.9365,1.2237719,11.18,1111122 
DISL,ioos:station:DISL:MHPA:1,2014-02-04T23:00:00Z,30.6671,-87.9365,1.2201144,11.4,1111122 
DISL,ioos:station:DISL:MHPA:1,2014-02-04T23:30:00Z,30.6671,-87.9365,1.2140185,11.44,1111122 
DISL,ioos:station:DISL:MHPA:1,2014-02-05T00:00:00Z,30.6671,-87.9365,1.2060937,11.1,1111122 
DISL,ioos:station:DISL:MHPA:1,2014-02-05T00:30:00Z,30.6671,-87.9365,1.1875008,11.03,1111122 
DISL,ioos:station:DISL:MHPA:1,2014-02-05T01:00:00Z,30.6671,-87.9365,1.1728704,10.92,1111122 
DISL,ioos:station:DISL:MHPA:1,2014-02-05T01:30:00Z,30.6671,-87.9365,1.1554968,11.2,1111122 
DISL,ioos:station:DISL:MHPA:1,2014-02-05T02:00:00Z,30.6671,-87.9365,1.1372088,11.2,1111122 
DISL,ioos:station:DISL:MHPA:1,2014-02-05T02:30:00Z,30.6671,-87.9365,1.1241024,11.31,1111122 
DISL,ioos:station:DISL:MHPA:1,2014-02-05T03:00:00Z,30.6671,-87.9365,1.1024617,11.24,1111122 
DISL,ioos:station:DISL:MHPA:1,2014-02-05T03:30:00Z,30.6671,-87.9365,1.08966,11.22,1111122 
DISL,ioos:station:DISL:MHPA:1,2014-02-05T04:00:00Z,30.6671,-87.9365,1.078992,11.16,1111122 
DISL,ioos:station:DISL:MHPA:1,2014-02-05T04:30:00Z,30.6671,-87.9365,1.0811256,11.08,1111122 
DISL,ioos:station:DISL:MHPA:1,2014-02-05T05:00:00Z,30.6671,-87.9365,1.0799065,11.06,1111122 
DISL,ioos:station:DISL:MHPA:1,2014-02-05T05:30:00Z,30.6671,-87.9365,1.0936224,11.11,1111122 
DISL,ioos:station:DISL:MHPA:1,2014-02-05T06:00:00Z,30.6671,-87.9365,1.1061192,11.07,1111122 
DISL,ioos:station:DISL:MHPA:1,2014-02-05T06:30:00Z,30.6671,-87.9365,1.1088624,11.04,1111122 
DISL,ioos:station:DISL:MHPA:1,2014-02-05T07:00:00Z,30.6671,-87.9365,1.1152632,10.7,1111122 
DISL,ioos:station:DISL:MHPA:1,2014-02-05T07:30:00Z,30.6671,-87.9365,1.0905744,10.65,1111122 
DISL,ioos:station:DISL:MHPA:1,2014-02-05T08:00:00Z,30.6671,-87.9365,1.0655808,10.68,1111122 
DISL,ioos:station:DISL:MHPA:1,2014-02-05T08:30:00Z,30.6671,-87.9365,1.0646664,10.88,1111122 
DISL,ioos:station:DISL:MHPA:1,2014-02-05T09:00:00Z,30.6671,-87.9365,1.0680192,10.98,1111122 
DISL,ioos:station:DISL:MHPA:1,2014-02-05T09:30:00Z,30.6671,-87.9365,1.0155936,10.91,1111122 
DISL,ioos:station:DISL:MHPA:1,2014-02-05T10:00:00Z,30.6671,-87.9365,0.9942576,10.94,1111122 
DISL,ioos:station:DISL:MHPA:1,2014-02-05T10:30:00Z,30.6671,-87.9365,0.9896856,10.93,1111122 
DISL,ioos:station:DISL:MHPA:1,2014-02-05T11:00:00Z,30.6671,-87.9365,0.96225363,10.73,1111122 
DISL,ioos:station:DISL:MHPA:1,2014-02-05T11:30:00Z,30.6671,-87.9365,0.9381744,10.76,1111122 
DISL,ioos:station:DISL:MHPA:1,2014-02-05T12:00:00Z,30.6671,-87.9365,0.90830404,10.69,1111122 
DISL,ioos:station:DISL:MHPA:1,2014-02-05T12:30:00Z,30.6671,-87.9365,0.871728,10.79,1111122 
DISL,ioos:station:DISL:MHPA:1,2014-02-05T13:00:00Z,30.6671,-87.9365,0.8317992,10.76,1111122 
DISL,ioos:station:DISL:MHPA:1,2014-02-05T13:30:00Z,30.6671,-87.9365,0.80467206,10.64,1111122 
DISL,ioos:station:DISL:MHPA:1,2014-02-05T14:00:00Z,30.6671,-87.9365,0.77967846,10.65,1111122 
DISL,ioos:station:DISL:MHPA:1,2014-02-05T14:30:00Z,30.6671,-87.9365,0.755904,10.75,1111122 
DISL,ioos:station:DISL:MHPA:1,2014-02-05T15:00:00Z,30.6671,-87.9365,0.73761606,10.75,1111122 
DISL,ioos:station:DISL:MHPA:1,2014-02-05T15:30:00Z,30.6671,-87.9365,0.71841365,10.74,1111122 
DISL,ioos:station:DISL:MHPA:1,2014-02-05T16:00:00Z,30.6671,-87.9365,0.7028688,10.73,1111122 
DISL,ioos:station:DISL:MHPA:1,2014-02-05T16:30:00Z,30.6671,-87.9365,0.6891528,10.69,1111122 
DISL,ioos:station:DISL:MHPA:1,2014-02-05T17:00:00Z,30.6671,-87.9365,0.67330325,10.78,1111122 
DISL,ioos:station:DISL:MHPA:1,2014-02-05T17:30:00Z,30.6671,-87.9365,0.6656832,10.81,1111122 
DISL,ioos:station:DISL:MHPA:1,2014-02-05T18:00:00Z,30.6671,-87.9365,0.66842645,10.84,1111122 
DISL,ioos:station:DISL:MHPA:1,2014-02-05T18:30:00Z,30.6671,-87.9365,0.6702552,10.87,1111122 
DISL,ioos:station:DISL:MHPA:1,2014-02-05T19:00:00Z,30.6671,-87.9365,0.66629285,10.86,1111122 
DISL,ioos:station:DISL:MHPA:1,2014-02-05T19:30:00Z,30.6671,-87.9365,0.67939925,10.93,1111122 
DISL,ioos:station:DISL:MHPA:1,2014-02-05T20:00:00Z,30.6671,-87.9365,0.7373112,10.94,1111122 
DISL,ioos:station:DISL:MHPA:1,2014-02-05T20:30:00Z,30.6671,-87.9365,0.8372856,10.95,1111122 
DISL,ioos:station:DISL:MHPA:1,2014-02-05T21:00:00Z,30.6671,-87.9365,0.8921496,10.96,1111122 
DISL,ioos:station:DISL:MHPA:1,2014-02-05T21:30:00Z,30.6671,-87.9365,0.9040368,11.06,1111122 
DISL,ioos:station:DISL:MHPA:1,2014-02-05T22:00:00Z,30.6671,-87.9365,0.9040368,11.1,1111122 
DISL,ioos:station:DISL:MHPA:1,2014-02-05T22:30:00Z,30.6671,-87.9365,0.9061704,11.26,1111122 
DISL,ioos:station:DISL:MHPA:1,2014-02-05T23:00:00Z,30.6671,-87.9365,0.8936736,11.27,1111122 
DISL,ioos:station:DISL:MHPA:1,2014-02-05T23:30:00Z,30.6671,-87.9365,0.8726424,11.24,1111122 
DISL,ioos:station:DISL:MHPA:1,2014-02-06T00:00:00Z,30.6671,-87.9365,0.85679287,11.35,1111122 
DISL,ioos:station:DISL:MHPA:1,2014-02-06T00:30:00Z,30.6671,-87.9365,0.8464296,11.41,1111122 
DISL,ioos:station:DISL:MHPA:1,2014-02-06T01:00:00Z,30.6671,-87.9365,0.82296,11.38,1111122 
DISL,ioos:station:DISL:MHPA:1,2014-02-06T01:30:00Z,30.6671,-87.9365,0.7900416,11.42,1111122 
DISL,ioos:station:DISL:MHPA:1,2014-02-06T02:00:00Z,30.6671,-87.9365,0.7598664,11.37,1111122 
DISL,ioos:station:DISL:MHPA:1,2014-02-06T02:30:00Z,30.6671,-87.9365,0.73243445,11.31,1111122 
DISL,ioos:station:DISL:MHPA:1,2014-02-06T03:00:00Z,30.6671,-87.9365,0.7046976,11.24,1111122 
DISL,ioos:station:DISL:MHPA:1,2014-02-06T03:30:00Z,30.6671,-87.9365,0.6739128,11.19,1111122 
DISL,ioos:station:DISL:MHPA:1,2014-02-06T04:00:00Z,30.6671,-87.9365,0.6516624,11.19,1111122 
DISL,ioos:station:DISL:MHPA:1,2014-02-06T04:30:00Z,30.6671,-87.9365,0.6330696,11.22,1111122 
DISL,ioos:station:DISL:MHPA:1,2014-02-06T05:00:00Z,30.6671,-87.9365,0.6147816,11.2,1111122 
DISL,ioos:station:DISL:MHPA:1,2014-02-06T05:30:00Z,30.6671,-87.9365,0.597408,11.12,1111122 
DISL,ioos:station:DISL:MHPA:1,2014-02-06T06:00:00Z,30.6671,-87.9365,0.582168,11.14,1111122 
DISL,ioos:station:DISL:MHPA:1,2014-02-06T06:30:00Z,30.6671,-87.9365,0.5663184,11.16,1111122 
DISL,ioos:station:DISL:MHPA:1,2014-02-06T07:00:00Z,30.6671,-87.9365,0.55595523,11.14,1111122 
DISL,ioos:station:DISL:MHPA:1,2014-02-06T07:30:00Z,30.6671,-87.9365,0.5480304,11.11,1111122 
DISL,ioos:station:DISL:MHPA:1,2014-02-06T08:00:00Z,30.6671,-87.9365,0.5407152,11.13,1111122 